Terminal Aerodrome Forecast
Issued by NWS Sioux Falls, SD

Home | Current Version | Previous Version | Graphics & Text | Print | Product List | Glossary On
Versions: 1 2 3 4 5 6 7 8 9 10 11 12 13 14 15 16 17 18 19 20 21 22 23 24 25 26 27 28 29 30 31 32
000
FTUS43 KFSD 162346
TAFSUX
TAF
KSUX 162346Z 1700/1724 15014KT P6SM SCT250
     FM170700 15014G22KT P6SM BKN250
     FM171300 16011KT P6SM OVC008
     FM171700 21006KT P6SM OVC010
     FM171900 25007KT P6SM OVC025
     FM172100 31009KT P6SM OVC045=

USA.gov is the U.S. government's official web portal to all federal, state and local government web resources and services.